Theta_e
327 328 330 331 332 332 333 334 334 333 333 333 333 333 334 337 339 340 340 339 339 338 338 337 337 337 337 338 338 338 338 337 337 337 336 336 335 335 335 335 335 334
322 324 326 329 331 331 332 333 334 334 333 333 333 333 333 335 338 340 340 339 339 338 338 338 337 335 335 338 339 338 338 338 338 337 336 336 336 335 335 335 335 334
315 318 321 325 328 330 331 332 333 334 334 333 333 333 333 335 336 339 340 340 339 338 338 337 337 335 335 337 338 338 338 337 337 337 337 336 335 335 335 335 335 334
311 313 316 319 322 326 329 331 332 332 333 334 334 334 334 334 336 337 338 339 339 339 338 337 336 336 336 337 338 338 337 337 337 336 336 336 335 335 335 335 335 336
309 310 312 314 316 320 324 327 329 331 332 332 333 333 334 335 336 336 337 339 339 339 338 336 335 335 336 337 337 338 338 337 337 337 336 336 336 336 335 336 337 337
308 307 308 311 313 315 318 321 325 328 330 331 332 332 333 335 335 336 336 338 339 339 338 337 335 334 335 336 337 338 338 337 337 337 336 336 336 336 336 336 337 337
306 306 306 308 310 312 313 315 319 324 327 329 331 331 332 334 335 336 336 337 338 338 338 337 335 335 335 335 336 337 337 337 337 337 337 336 336 336 336 337 337 337
305 305 305 306 308 310 311 313 315 320 324 327 329 330 332 333 334 335 336 336 337 337 337 337 336 336 336 334 334 336 337 338 338 338 337 336 336 336 337 336 336 337
303 304 304 305 306 308 310 312 313 316 320 325 327 329 331 332 332 334 335 335 336 336 337 336 336 337 336 335 335 335 337 338 338 337 337 336 335 335 336 336 335 336
301 303 304 304 306 307 309 311 313 315 318 322 326 327 329 330 331 332 334 333 335 336 336 335 336 336 335 335 334 335 336 337 337 337 337 336 335 335 336 336 335 335
301 302 303 304 305 307 309 311 314 316 317 321 324 326 329 330 329 332 333 333 334 335 336 335 335 335 335 335 335 335 336 337 337 336 337 336 335 335 335 336 336 336
301 302 303 304 305 306 309 311 314 316 316 318 321 324 328 330 330 332 333 333 334 334 335 335 335 335 335 335 335 335 336 336 336 336 336 336 336 335 335 335 336 336
302 302 302 303 304 306 308 311 314 315 315 317 319 323 327 329 330 331 332 333 333 333 334 334 335 335 335 335 336 336 336 336 336 335 336 336 335 335 335 335 336 336
302 302 302 303 304 306 308 310 313 315 316 316 318 322 326 329 331 331 332 332 332 332 333 333 334 333 333 334 335 336 336 335 335 335 335 336 336 335 336 336 336 336
303 302 302 303 304 306 308 311 313 315 317 318 319 322 325 328 330 331 330 331 331 332 332 333 333 333 332 333 334 335 335 334 334 334 335 335 335 335 335 336 336 336
303 303 303 302 304 306 308 309 312 314 316 318 319 321 324 328 330 331 330 330 330 331 333 333 333 333 333 333 334 335 335 335 334 334 335 334 334 333 333 335 336 336
303 303 302 303 304 306 307 307 309 312 316 318 319 320 323 327 330 331 331 330 330 331 333 333 334 334 333 334 334 334 335 335 335 334 334 334 333 333 333 335 336 335
304 303 302 303 304 305 305 306 308 311 315 318 319 320 322 324 327 329 330 330 331 332 332 333 334 333 333 333 333 334 335 336 336 335 334 333 334 335 335 335 335 334
304 303 302 303 304 304 305 305 307 311 316 317 319 319 320 321 323 327 330 330 331 332 332 332 332 333 333 333 333 333 334 335 335 334 334 334 335 335 335 335 335 334
303 303 303 303 303 304 305 306 308 312 316 317 318 319 319 318 320 325 329 329 330 331 332 331 331 332 333 333 333 334 334 335 335 334 334 335 335 335 335 334 334 334
304 303 303 303 303 304 305 306 308 313 316 317 318 318 317 315 316 323 329 329 329 330 331 331 332 333 333 333 333 334 335 335 335 334 334 334 334 335 335 334 334 334
304 303 303 303 303 304 305 306 309 313 315 317 317 317 316 314 315 320 328 329 329 331 331 331 333 333 333 333 333 334 335 335 335 334 334 333 333 334 334 334 334 334
304 303 303 303 304 305 305 307 309 313 315 316 317 315 314 313 314 319 327 330 330 330 331 331 333 333 333 333 332 333 334 334 334 333 333 333 333 334 334 334 333 333
304 303 303 303 304 305 306 307 310 313 315 316 316 314 313 315 318 323 328 330 329 330 330 331 332 332 332 332 332 333 334 334 334 333 333 333 333 333 333 332 332 332
303 303 303 304 304 305 306 308 311 314 315 316 316 314 314 317 323 327 328 328 329 329 330 331 331 331 331 332 331 332 334 334 333 333 332 332 332 331 331 332 331 331
303 303 303 304 304 305 306 310 312 313 314 314 314 313 313 317 324 328 328 328 328 328 329 331 331 330 330 330 331 332 333 333 333 332 331 331 330 330 330 331 331 331
Wind_Speed
22 21 21 21 23 24 24 25 25 26 30 32 34 35 36 36 35 34 35 36 36 35 34 34 33 32 30 29 29 29 29 29 29 29 29 29 30 29 29 28 27 26
25 25 24 23 23 23 23 24 25 26 28 31 34 36 36 36 35 33 34 36 36 35 34 34 35 33 31 30 29 29 29 29 28 28 28 29 29 29 29 29 28 27
28 27 26 26 26 25 24 24 24 25 27 29 32 34 36 37 36 34 34 36 37 35 33 34 34 33 32 31 30 30 29 29 29 28 27 28 28 29 29 29 28 27
32 30 27 26 27 27 26 25 25 26 26 28 30 33 35 37 36 35 34 34 35 34 34 34 33 32 31 32 31 30 30 31 30 29 28 28 28 28 29 28 27 27
32 32 30 28 27 28 28 27 27 27 28 29 31 31 34 36 36 35 35 33 32 34 34 32 29 29 30 31 31 30 30 31 30 29 28 28 27 28 28 27 27 27
34 34 34 31 29 28 29 28 28 28 29 31 32 32 32 34 36 37 38 35 33 34 35 31 27 28 29 30 31 32 32 32 31 29 27 28 28 28 28 28 28 28
35 36 35 34 32 31 30 29 29 29 30 32 33 33 31 32 36 38 37 36 34 35 35 31 30 31 30 29 32 35 34 32 30 28 27 27 27 27 27 28 28 29
35 35 35 36 35 33 32 31 30 30 31 32 33 32 30 32 35 36 35 34 35 35 33 32 33 33 31 30 32 33 32 31 30 28 28 27 26 27 28 27 28 29
36 34 35 36 36 34 34 33 32 31 32 32 33 33 30 31 34 35 35 34 35 35 32 32 33 32 31 32 32 31 30 31 30 29 30 29 28 29 29 28 28 29
36 36 35 36 36 35 35 35 34 33 33 32 34 34 31 30 32 33 34 35 36 34 32 33 33 30 30 30 31 31 31 31 30 29 30 31 30 30 30 29 29 29
35 36 35 36 36 36 35 35 35 34 33 33 34 35 33 31 30 31 34 37 38 36 34 34 32 30 29 29 30 32 33 32 31 30 29 30 31 31 31 30 30 30
33 34 34 36 37 37 36 35 34 34 34 34 35 36 33 31 30 30 36 38 37 36 34 32 31 31 31 30 31 32 33 33 33 32 30 30 31 31 31 31 31 31
31 33 34 35 36 36 36 35 34 34 35 35 36 36 34 33 31 32 36 35 32 33 33 31 31 32 32 31 31 32 33 33 32 32 31 31 31 31 31 32 32 32
30 32 33 34 35 36 35 35 34 34 35 36 36 37 36 34 31 31 36 36 33 34 34 31 31 31 31 31 31 32 33 33 32 32 32 31 30 31 31 31 31 31
29 31 32 33 34 35 35 34 33 34 36 35 35 37 37 35 32 32 37 36 32 32 32 30 31 32 32 32 32 32 32 32 31 31 32 31 32 33 33 31 30 30
28 31 32 33 33 33 34 34 34 34 35 34 34 38 37 33 31 31 35 36 31 29 30 31 32 33 33 33 34 33 31 31 30 30 31 31 31 32 31 30 29 28
27 30 31 32 32 32 34 35 35 34 34 32 33 36 34 28 27 26 26 29 31 31 32 33 35 35 35 35 34 33 33 33 32 31 31 30 28 28 29 29 28 26
27 29 31 32 32 33 35 36 35 34 32 31 31 33 30 26 26 28 24 25 30 32 33 35 36 37 37 35 35 35 36 36 34 33 31 29 27 26 25 25 24 21
26 28 30 32 32 34 35 36 35 33 31 30 31 33 31 27 27 30 31 30 30 33 34 36 37 36 35 35 35 37 39 37 35 33 31 29 28 26 24 23 23 20
27 28 29 32 33 34 35 35 34 32 30 31 32 32 30 27 29 30 34 34 32 33 33 34 36 36 34 34 34 36 39 37 34 32 31 29 29 28 26 24 23 22
26 27 29 31 33 34 34 35 33 29 29 31 32 33 32 31 32 31 34 37 34 34 32 32 35 36 35 35 35 35 37 36 33 32 31 28 27 27 27 26 24 23
25 26 29 31 32 33 33 33 31 27 28 32 33 35 36 34 33 30 34 38 35 34 33 33 36 35 35 35 34 35 36 35 33 32 30 27 27 27 28 27 26 25
25 26 28 30 31 32 32 33 30 28 29 33 34 36 35 34 36 33 35 38 36 34 33 34 36 35 35 35 34 35 37 35 32 31 29 29 29 28 28 28 28 27
25 26 27 29 30 30 32 33 29 28 30 32 34 34 33 35 35 30 33 34 36 35 33 35 35 33 33 35 36 38 38 35 32 31 29 30 29 28 29 29 28 25
26 26 26 28 29 31 33 31 28 28 30 32 34 34 34 37 28 27 33 29 31 34 34 35 35 31 32 35 38 39 37 34 33 30 29 30 29 27 27 27 26 23
24 25 26 29 30 32 33 29 26 27 28 31 34 32 34 36 19 23 32 27 28 30 31 35 34 30 31 35 39 38 34 34 34 31 30 29 28 27 26 24 24 22
Wind_Direction
344 338 329 319 310 304 298 289 277 266 261 258 256 254 251 246 239 235 235 235 234 231 232 238 244 245 241 235 231 229 227 225 223 225 226 226 226 226 225 225 224 224
345 342 336 328 318 310 304 296 286 275 268 265 263 260 258 252 242 234 234 233 231 229 227 231 237 239 240 238 234 231 229 227 225 224 225 227 228 227 227 228 227 227
343 342 339 334 326 318 311 303 296 287 278 272 269 266 263 257 246 236 233 233 233 231 228 229 231 231 235 238 235 233 231 230 228 225 226 228 228 227 227 228 228 226
341 340 338 335 330 323 317 310 302 296 289 279 273 271 268 262 253 242 235 234 235 235 234 233 229 225 227 231 232 232 231 231 231 227 225 226 226 226 226 226 225 225
337 337 336 334 331 326 322 316 308 302 295 285 278 274 270 265 258 247 238 233 230 231 233 233 229 225 223 223 227 229 226 227 228 225 222 223 223 224 224 222 221 222
335 335 335 332 329 326 322 318 313 307 300 292 285 279 272 266 259 251 242 233 226 225 227 226 225 226 223 218 219 223 224 225 225 223 221 221 221 222 221 220 220 221
332 332 333 330 327 324 321 318 315 309 304 298 291 283 275 266 259 253 245 235 227 224 222 218 219 224 223 217 216 219 222 224 222 218 217 217 218 219 219 220 221 221
328 329 330 329 326 323 319 317 315 311 306 300 295 288 279 268 261 256 248 238 230 226 220 215 215 218 216 212 214 217 218 217 217 215 215 216 216 216 217 220 222 222
326 327 328 328 325 322 318 315 313 313 309 301 295 291 281 270 263 257 250 242 233 227 220 214 213 214 214 212 213 216 216 215 215 213 213 215 216 217 218 218 220 221
325 324 326 326 324 321 317 314 312 313 312 305 296 292 282 270 263 256 248 241 235 228 220 215 212 211 213 214 214 214 213 214 213 210 210 213 216 218 217 215 216 218
324 322 323 323 322 319 316 313 310 311 312 307 298 293 284 271 263 253 241 234 230 225 218 214 212 209 209 213 213 212 213 215 214 211 210 211 214 216 216 215 216 217
322 320 320 320 319 317 315 311 308 308 310 307 301 296 286 272 263 251 238 230 225 222 218 212 210 209 208 209 211 213 214 215 216 214 211 209 210 215 217 217 216 218
319 317 317 317 316 315 313 309 306 306 307 307 302 297 288 274 261 246 234 228 224 222 220 212 209 210 209 207 209 211 211 212 213 214 211 208 209 214 217 217 216 218
316 315 314 314 314 313 311 308 306 305 305 306 303 298 289 276 260 240 228 225 223 222 219 211 208 212 211 208 210 211 211 210 210 211 209 206 206 208 212 214 216 218
314 313 313 313 312 312 311 308 305 304 304 304 303 298 290 278 264 242 225 221 220 219 218 212 209 213 213 209 208 208 210 210 209 209 207 204 203 203 206 210 213 217
312 312 312 312 311 311 310 308 305 302 302 301 300 299 292 280 264 241 219 214 215 216 217 215 211 211 211 208 206 205 206 207 207 207 206 205 205 203 203 206 210 213
310 311 311 311 310 310 309 308 304 300 298 298 297 295 292 280 262 243 217 206 207 209 212 215 213 211 209 207 206 204 202 202 203 203 204 205 205 202 200 200 203 206
309 311 311 310 310 310 309 307 304 298 295 297 294 289 290 286 269 251 230 213 206 203 206 213 215 214 210 206 205 203 202 201 200 201 202 202 202 200 199 197 194 191
311 311 310 309 309 309 308 306 302 295 293 297 294 287 286 292 282 257 233 219 209 201 202 211 217 215 210 207 205 204 203 201 198 197 198 198 198 196 195 194 190 183
310 309 309 308 309 308 306 304 299 292 294 299 295 287 284 292 294 268 231 215 210 203 201 209 214 212 208 205 204 203 202 199 195 194 194 194 193 193 191 189 189 189
308 307 308 308 308 307 304 302 296 291 297 300 294 287 283 287 293 270 228 211 209 205 201 206 210 208 204 202 201 200 197 194 191 190 190 190 191 192 192 189 188 192
304 305 307 307 307 305 302 299 295 292 298 298 290 285 281 280 285 264 223 208 208 203 198 201 203 201 199 197 197 196 193 191 189 186 182 182 186 189 190 187 185 186
303 305 307 306 304 302 300 297 294 293 298 295 287 283 280 282 282 260 221 204 202 200 194 193 193 193 193 192 190 190 188 185 183 179 174 176 181 184 184 180 179 181
305 307 306 303 301 300 297 294 292 293 296 293 284 278 284 293 284 247 211 193 189 190 189 186 183 184 188 188 184 183 182 180 176 172 169 172 177 180 180 176 175 178
309 309 306 302 300 297 293 290 291 293 294 291 282 273 282 295 277 212 189 181 177 181 185 182 178 178 182 184 181 179 177 174 171 166 165 171 174 176 180 180 178 179
312 310 306 301 298 295 292 290 290 293 292 286 278 268 274 290 278 178 171 172 169 173 178 176 173 170 173 176 174 174 173 168 165 165 166 169 170 170 174 178 179 181